sat.trackr.live / text

‹ back to catalog

STARLINK-5511

NORAD 57252 · 2023-094AL

PAYLOAD ACTIVE UNKNOWN

§ Identity

Operator
Country
US
Launch date
2023-07-07
Launch site
AFWTR
Launch vehicle
Mass (kg)
RCS (m²)

Purposes: comms

External: N2YO · Heavens-Above · Gunter

§ Orbital elements

Epoch: 2026-05-24T19:04:56.313408Z

Period
94.27 min
Inclination
43.0041°
Eccentricity
0.0002336
Mean motion
15.27584871 rev/d
Perigee alt
481.4 km
Apogee alt
484.6 km
Semi-major
6,861.2 km
B*
1.1311e-4
RAAN
309.7106°
Arg perigee
268.5449°
Mean anomaly
91.5135°
Rev number
15,888

§ Raw data

STARLINK-55111 57252U 23094AL  26144.79509622  .00002852  00000+0  11311-3 0  99922 57252  43.0041 309.7106 0002336 268.5449  91.5135 15.27584871158885

JSON: /api/v1/satellites/57252 · /tle

For live sub-satellite position, see the globe view (requires WebGL).

§ Visibility from observer

Set your observer location to see the next 7 days of passes ≥ 10°. The values pass through the URL so the page stays shareable.

No JS? Fill the form by hand. The geolocation button needs JavaScript.